Location: La Bilong�re
(48.1297°N, 1.4584°W)
Time: 07:12:48
(UTC+00:00)

Resurs 01 Rocket - Pass Details

Date: 03 March 2021
Orbit: 635 x 643 km, 98.0° (Epoch: 11 April)

Event Time Altitude Azimuth Distance (km) Brightness Sun altitude
Exits shadow 20:50:14 37° 334° (NNW) 989 2.9 -29.6°
Drops below altitude 10° 20:52:59 10° 343° (NNW) 2,035 4.7 -30.0°
Sets 20:55:13 0° 345° (NNW) 2,949 5.6 -30.3°
